Content
SEND FEEDBACK

Daily
Averages
Monthly
Summary
China

CHONGQING, CHINA


Home > Asia > China
Elevation: 1151 feet     Latitude: 29 31N     Longitude: 106 29E

WEATHER
 
SELECT A DAY
Number of Records: 129,957;   Date Range: 1/29/00 - 7/20/14
 
SHARE

PRINT THIS DATA

[ ← Previous Day ]
WEATHER ALMANAC - JANUARY 20, 2013
[ Next Day → ]
[ °C ]   °F
Weather ElementAverageHighLow
Temperature49.4 °F54 °F (2:00 pm)46.4 °F (2:00 am)
Dewpoint39.6 °F42.8 °F (12:00 pm)35.6 °F (5:00 pm)
Humidity67.3 %81 % (7:00 am)49 % (2:00 pm)
Barometer30.04 in30.22 in (11:00 pm)29.95 in (1:00 am)
Wind Speed4.1 mph11.2 mph (7:00 pm)
Weather ElementAverage
Visibility1.6 mi
Wind DirectionSSE (158.9 °)

Weather ElementTotal
Precipitation---
Heating Degree Days14.8 (Base 65)
Growing Degree Days0.2 (Base 50)
Averaged from 29 records on January 20, 2013
WEATHER CONDITIONS BREAKOUT
WIND DIRECTION BREAKOUT
WEATHER BY HOUR - JANUARY 20, 2013
[ °C ]   °F
Local TimeTemperatureDewpointHumidityBarometerVisibilityWind DirectionWind SpeedGust SpeedPrecipitationEventsConditions
1:00 AM48.2 °F37.4 °F66 %29.95 in1.9 miVariable2.2 mphHaze
2:00 AM49.0 °F38.0 °F56 %29.99 in2.0 miWest (270°)2.2 mphMist
2:00 AM46.4 °F37.4 °F71 %29.95 in1.9 miSSW (200°)2.2 mphHaze
3:00 AM48.2 °F37.4 °F66 %29.98 in1.9 miVariable2.2 mphHaze
4:00 AM48.2 °F37.4 °F66 %29.98 in1.9 miVariable2.2 mphHaze
5:00 AM46.4 °F37.4 °F71 %29.98 in1.9 miSSW (210°)2.2 mphScattered Clouds
6:00 AM46.4 °F39.2 °F76 %29.98 in1.9 miSSW (200°)4.5 mphScattered Clouds
7:00 AM46.4 °F41.0 °F81 %30.01 in1.9 miSSW (200°)4.5 mphScattered Clouds
8:00 AM49.0 °F41.0 °F66 %30.04 in1.0 miCalmMist
8:00 AM48.2 °F41.0 °F76 %30.01 in1.6 miVariable2.2 mphScattered Clouds
9:00 AM46.4 °F41.0 °F81 %30.04 in1.4 miSouth (170°)4.5 mphScattered Clouds
10:00 AM48.2 °F41.0 °F76 %30.06 in1.2 miSouth (170°)4.5 mphScattered Clouds
11:00 AM48.2 °F41.0 °F76 %30.06 in1.2 miVariable2.2 mphScattered Clouds
12:00 PM50.0 °F42.8 °F76 %30.06 in0.9 miVariable2.2 mphScattered Clouds
1:00 PM50.0 °F41.0 °F71 %30.04 in1.0 miVariable2.2 mphScattered Clouds
2:00 PM54.0 °F40.0 °F49 %30.01 in1.0 miNNW (340°)4.5 mphMist
2:00 PM53.6 °F39.2 °F58 %30.01 in1.6 miNW (310°)4.5 mphHaze
3:00 PM51.8 °F39.2 °F62 %29.98 in2.5 miVariable2.2 mphHaze
4:00 PM51.8 °F37.4 °F58 %29.98 in2.2 miVariable4.5 mphHaze
5:00 PM53.0 °F40.0 °F51 %30.03 in1.0 miNorth2.2 mphHaze
5:00 PM51.8 °F35.6 °F54 %30.01 in2.2 miWNW (290°)4.5 mphHaze
6:00 PM51.8 °F39.2 °F62 %30.04 in1.7 miNW (310°)6.7 mphHaze
7:00 PM50.0 °F41.0 °F71 %30.06 in1.7 miNorth (10°)11.2 mphScattered Clouds
8:00 PM52.0 °F39.0 °F51 %30.14 in2.0 miNNW (340°)4.5 mphHaze
8:00 PM50.0 °F41.0 °F71 %30.09 in1.6 miNorth (360°)11.2 mphScattered Clouds
9:00 PM48.2 °F41.0 °F76 %30.12 in1.6 miNorth (360°)8.9 mphScattered Clouds
10:00 PM48.2 °F41.0 °F76 %30.15 in1.4 miNorth (360°)4.5 mphScattered Clouds
11:00 PM50.0 °F41.0 °F63 %30.22 in1.0 miNNE (20°)2.2 mphMist
11:00 PM48.2 °F41.0 °F76 %30.18 in1.0 miNNW (330°)6.7 mphScattered Clouds
Hourly data recorded from ZUCK, located miles away from Chongqing, China







STORIES FROM OUR PARTNERS